This demonstration page uses our WeatherBlox Daily Observations layout. Learn more.

Left ArrowRight Arrow

53.62937, 11.41316

Hourly Observations for December 6, 2021

Temp ( °F °C ) Dew Point ( °F °C ) Humidity (%) Winds ( mph kmh ) Pressure ( in mb ) Visibility ( mi km ) Precip ( " mm )
12:20 am 00:20 Mostly Cloudy 34 1 32 0 93 93 Calm 29.92 1013 4 6 N/A
12:50 am 00:50 Mostly Cloudy 34 1 32 0 93 93 VRB 2 4 29.92 1013 4 6 N/A
1:20 am 01:20 Mostly Cloudy 32 0 32 0 100 100 Calm 29.92 1013 3 4 N/A
1:50 am 01:50 Mostly Cloudy 32 0 32 0 100 100 Calm 29.92 1013 3 5 N/A
2:20 am 02:20 Mostly Cloudy 34 1 34 1 100 100 ENE 3 6 29.95 1014 3 5 N/A
2:50 am 02:50 Partly Cloudy 32 0 32 0 100 100 NE 2 4 29.95 1014 4 7 N/A
3:20 am 03:20 Partly Cloudy 32 0 30 -1 93 93 NNE 3 6 29.95 1014 4 7 N/A
3:50 am 03:50 Mostly Clear 32 0 30 -1 93 93 ENE 5 7 29.95 1014 4 7 N/A
4:20 am 04:20 Mostly Clear 30 -1 30 -1 100 100 ENE 6 9 29.95 1014 30 48 N/A
4:50 am 04:50 Mostly Clear 28 -2 28 -2 100 100 ENE 7 11 29.95 1014 30 48 N/A
5:20 am 05:20 Mostly Clear 32 0 32 0 100 100 ENE 6 9 29.98 1015 30 48 N/A
5:50 am 05:50 Mostly Cloudy 34 1 34 1 100 100 E 8 13 29.98 1015 30 48 N/A
6:20 am 06:20 Mostly Cloudy 34 1 34 1 100 100 ENE 7 11 29.98 1015 30 48 N/A
6:50 am 06:50 Cloudy 34 1 32 0 93 93 E 5 7 30.01 1016 30 48 N/A
7:20 am 07:20 Mostly Cloudy 34 1 34 1 100 100 ESE 3 6 30.01 1016 30 48 N/A
7:50 am 07:50 Mostly Cloudy 34 1 32 0 93 93 E 6 9 30.01 1016 30 48 N/A
8:20 am 08:20 Mostly Cloudy 34 1 32 0 93 93 ENE 5 7 30.03 1017 30 48 N/A
8:50 am 08:50 Cloudy 34 1 32 0 93 93 E 5 7 30.03 1017 30 48 N/A
9:20 am 09:20 Mostly Cloudy 34 1 32 0 93 93 ENE 3 6 30.03 1017 30 48 N/A
9:50 am 09:50 Cloudy 34 1 32 0 93 93 E 5 7 30.03 1017 30 48 N/A
10:20 am 10:20 Partly Cloudy 36 2 32 0 87 87 E 5 7 30.01 1016 30 48 N/A
10:50 am 10:50 Mostly Cloudy 36 2 32 0 87 87 E 6 9 30.01 1016 30 48 N/A
11:20 am 11:20 Mostly Cloudy 36 2 32 0 87 87 E 6 9 30.01 1016 30 48 N/A
11:50 am 11:50 Mostly Cloudy 36 2 32 0 87 87 ESE 5 7 30.01 1016 30 48 N/A
12:20 pm 12:20 Partly Cloudy 37 3 34 1 87 87 ESE 7 11 30.01 1016 30 48 N/A
12:50 pm 12:50 Mostly Sunny 37 3 32 0 81 81 ESE 7 11 29.98 1015 30 48 N/A
1:20 pm 13:20 Mostly Sunny 36 2 32 0 87 87 SE 6 9 29.98 1015 30 48 N/A
1:50 pm 13:50 Mostly Sunny 36 2 32 0 87 87 ESE 8 13 29.98 1015 30 48 N/A
2:20 pm 14:20 Partly Cloudy 36 2 32 0 87 87 SE 8 13 29.98 1015 30 48 N/A
2:50 pm 14:50 Partly Cloudy 36 2 32 0 87 87 ESE 6 9 29.98 1015 30 48 N/A
3:20 pm 15:20 Partly Cloudy 36 2 32 0 87 87 ESE 5 7 29.98 1015 30 48 N/A
3:50 pm 15:50 Mostly Cloudy 36 2 32 0 87 87 ESE 7 11 29.98 1015 30 48 N/A
4:20 pm 16:20 Mostly Cloudy 36 2 32 0 87 87 ESE 7 11 29.95 1014 30 48 N/A
4:50 pm 16:50 Partly Cloudy 34 1 30 -1 87 87 ESE 6 9 29.95 1014 30 48 N/A
5:20 pm 17:20 Partly Cloudy 34 1 32 0 93 93 SE 6 9 29.95 1014 30 48 N/A
5:50 pm 17:50 Partly Cloudy 34 1 32 0 93 93 SE 7 11 29.92 1013 30 48 N/A
6:20 pm 18:20 Partly Cloudy 34 1 32 0 93 93 SE 7 11 29.92 1013 30 48 N/A
6:50 pm 18:50 Partly Cloudy 34 1 30 -1 87 87 SE 9 15 29.92 1013 30 48 N/A
7:50 pm 19:50 Cloudy 34 1 30 -1 87 87 SSE 6 9 29.92 1013 30 48 N/A
8:20 pm 20:20 Cloudy 34 1 30 -1 87 87 SSE 9 15 29.92 1013 30 48 N/A
8:50 pm 20:50 Cloudy 34 1 30 -1 87 87 SSE 8 13 29.89 1012 30 48 N/A
9:20 pm 21:20 Cloudy 34 1 30 -1 87 87 SE 8 13 29.89 1012 30 48 N/A
9:50 pm 21:50 Cloudy 34 1 30 -1 87 87 SE 10 17 29.89 1012 30 48 N/A
10:20 pm 22:20 Cloudy 34 1 30 -1 87 87 SE 10 17 29.86 1011 30 48 N/A
10:50 pm 22:50 Cloudy 34 1 28 -2 81 81 SE 12 19 29.86 1011 30 48 N/A
11:20 pm 23:20 Cloudy 34 1 28 -2 81 81 SE 12 19 29.83 1010 30 48 N/A
11:50 pm 23:50 Mostly Cloudy 32 0 28 -2 87 87 SE 10 17 29.80 1009 30 48 N/A

Powered by AerisWeather